Location: ???????????
(55.5758°N, 38.4970°E)
Time: 18:12:57
(UTC+00:00)

Cosmos 1891 Rocket - Pass Details

Date: 15 November 2025
Orbit: 932 x 1018 km, 82.9° (Epoch: 14 December)

Event Time Altitude Azimuth Distance (km) Brightness Sun altitude
Rises 02:27:00 0° 348° (NNW) 3,751 7.4 -21.3°
Reaches altitude 10° 02:29:34 10° 348° (NNW) 2,787 6.7 -20.9°
Maximum altitude 02:35:59 89° 264° (W) 996 4.5 -20.0°
Drops below altitude 10° 02:42:14 10° 172° (S) 2,711 7.0 -19.2°
Sets 02:44:42 0° 172° (S) 3,641 7.7 -18.8°
